Check out our new BloomSky Weather System.

Active alerts


No alerts


Thunder radar  blitzortung!


Rain radar more information rain snow radar


Visit our other weather sites:

Template documentation
and downloads

And another site



Weather Underground History page Text

Daily Summary for February 2, 2017 Units:  Metric    English   Both
« Previous Day
Next Day »
Daily Weekly Monthly Yearly Custom
  High: Low: Average:
Temperature: 20.2 °C 12 °C 17.9 °C
Dew Point: 19.5 °C 8.4 °C 14.1 °C
Humidity: 97 % 58 % 79 %
Wind Speed: 14.5 km/h 0 km/h 4.3 km/h
Wind Gust: 19.3 km/h - -
Wind:- - West
Pressure: 1023.9 hPa 1017.5 hPa -
Precipitation: 0 mm    
Historical Graphs
 
 
Tabular Data for February 2, 2017
Time Temperature Dew Point Pressure Wind Wind Speed Wind Gust Humidity Rainfall Rate (Hourly)
00:01 20.2 °C 18.7 °C 1017.5 hPa South 4.8 km/h 11.3 km/h 91 % 0 mm
00:06 20.2 °C 18.7 °C 1017.5 hPa SSE 3.2 km/h 11.3 km/h 91 % 0 mm
00:11 20.2 °C 18.7 °C 1017.5 hPa SSE 8 km/h 11.3 km/h 91 % 0 mm
00:16 20.2 °C 18.7 °C 1017.5 hPa SE 6.4 km/h 11.3 km/h 91 % 0 mm
00:21 20.2 °C 18.7 °C 1017.5 hPa SSE 3.2 km/h 9.7 km/h 91 % 0 mm
00:26 20.1 °C 18.6 °C 1017.5 hPa SSW 4.8 km/h 9.7 km/h 91 % 0 mm
00:31 20.1 °C 18.6 °C 1017.5 hPa South 3.2 km/h 9.7 km/h 91 % 0 mm
00:37 20.1 °C 18.6 °C 1017.5 hPa South 4.8 km/h 8 km/h 91 % 0 mm
00:42 20 °C 18.7 °C 1017.5 hPa SSE 3.2 km/h 8 km/h 92 % 0 mm
00:47 20 °C 18.7 °C 1017.5 hPa South 3.2 km/h 9.7 km/h 92 % 0 mm
00:52 20 °C 18.7 °C 1017.5 hPa SSW 4.8 km/h 9.7 km/h 92 % 0 mm
00:57 19.9 °C 18.6 °C 1017.5 hPa South 1.6 km/h 9.7 km/h 92 % 0 mm
01:02 19.9 °C 18.6 °C 1017.5 hPa SSE 4.8 km/h 9.7 km/h 92 % 0 mm
01:07 19.9 °C 18.6 °C 1017.5 hPa SSE 4.8 km/h 8 km/h 92 % 0 mm
01:12 19.8 °C 18.5 °C 1017.5 hPa SSW 4.8 km/h 9.7 km/h 92 % 0 mm
01:17 19.8 °C 18.5 °C 1017.5 hPa SW 4.8 km/h 9.7 km/h 92 % 0 mm
01:22 19.8 °C 18.5 °C 1017.5 hPa SSE 3.2 km/h 9.7 km/h 92 % 0 mm
01:27 19.8 °C 18.6 °C 1017.8 hPa SSE 1.6 km/h 9.7 km/h 93 % 0 mm
01:32 19.8 °C 18.6 °C 1017.8 hPa SSW 3.2 km/h 8 km/h 93 % 0 mm
01:37 19.7 °C 18.5 °C 1017.8 hPa SSE 3.2 km/h 8 km/h 93 % 0 mm
01:42 19.7 °C 18.5 °C 1017.8 hPa SSE 4.8 km/h 8 km/h 93 % 0 mm
01:47 19.7 °C 18.5 °C 1017.8 hPa South 4.8 km/h 6.4 km/h 93 % 0 mm
01:52 19.7 °C 18.5 °C 1017.8 hPa SSE 3.2 km/h 8 km/h 93 % 0 mm
01:57 19.7 °C 18.5 °C 1017.8 hPa South 1.6 km/h 8 km/h 93 % 0 mm
02:02 19.7 °C 18.5 °C 1017.5 hPa SSE 8 km/h 8 km/h 93 % 0 mm
02:07 19.8 °C 18.6 °C 1017.8 hPa South 6.4 km/h 8 km/h 93 % 0 mm
02:12 19.8 °C 18.6 °C 1017.8 hPa SSE 3.2 km/h 8 km/h 93 % 0 mm
02:17 19.7 °C 18.5 °C 1017.8 hPa SSE 3.2 km/h 8 km/h 93 % 0 mm
02:22 19.7 °C 18.7 °C 1017.8 hPa SSE 4.8 km/h 8 km/h 94 % 0 mm
02:27 19.7 °C 18.7 °C 1017.8 hPa South 6.4 km/h 8 km/h 94 % 0 mm
02:32 19.7 °C 18.7 °C 1017.8 hPa SSE 4.8 km/h 9.7 km/h 94 % 0 mm
02:37 19.6 °C 18.6 °C 1017.8 hPa South 4.8 km/h 9.7 km/h 94 % 0 mm
02:42 19.6 °C 18.6 °C 1017.8 hPa South 6.4 km/h 9.7 km/h 94 % 0 mm
02:47 19.6 °C 18.6 °C 1017.8 hPa SSE 3.2 km/h 12.9 km/h 94 % 0 mm
02:52 19.6 °C 18.6 °C 1017.8 hPa South 1.6 km/h 12.9 km/h 94 % 0 mm
02:57 19.6 °C 18.6 °C 1017.8 hPa SSW 3.2 km/h 12.9 km/h 94 % 0 mm
03:02 19.5 °C 18.5 °C 1017.5 hPa SE 4.8 km/h 9.7 km/h 94 % 0 mm
03:07 19.6 °C 18.6 °C 1017.5 hPa SSE 4.8 km/h 11.3 km/h 94 % 0 mm
03:12 19.6 °C 18.8 °C 1017.5 hPa SE 6.4 km/h 11.3 km/h 95 % 0 mm
03:17 19.6 °C 18.8 °C 1017.5 hPa South 6.4 km/h 11.3 km/h 95 % 0 mm
03:22 19.6 °C 18.8 °C 1017.5 hPa South 3.2 km/h 11.3 km/h 95 % 0 mm
03:28 19.7 °C 18.9 °C 1017.5 hPa SW 3.2 km/h 11.3 km/h 95 % 0 mm
03:33 19.6 °C 18.8 °C 1017.8 hPa SSE 9.7 km/h 9.7 km/h 95 % 0 mm
03:38 19.7 °C 18.9 °C 1017.8 hPa South 3.2 km/h 16.1 km/h 95 % 0 mm
03:43 19.6 °C 18.6 °C 1017.8 hPa SSE 1.6 km/h 16.1 km/h 94 % 0 mm
03:48 19.6 °C 18.8 °C 1018.2 hPa West 1.6 km/h 16.1 km/h 95 % 0 mm
03:53 19.6 °C 18.8 °C 1018.5 hPa West 1.6 km/h 9.7 km/h 95 % 0 mm
03:58 19.6 °C 18.8 °C 1018.5 hPa West 1.6 km/h 3.2 km/h 95 % 0 mm
04:03 19.6 °C 18.8 °C 1018.5 hPa Calm   3.2 km/h 95 % 0 mm
04:08 19.6 °C 18.8 °C 1018.5 hPa Calm   3.2 km/h 95 % 0 mm
04:13 19.6 °C 18.8 °C 1018.2 hPa SW 1.6 km/h 3.2 km/h 95 % 0 mm
04:18 19.6 °C 18.8 °C 1018.2 hPa South 8 km/h 8 km/h 95 % 0 mm
04:23 19.6 °C 18.8 °C 1017.8 hPa SSE 8 km/h 9.7 km/h 95 % 0 mm
04:28 19.6 °C 18.8 °C 1017.8 hPa SE 6.4 km/h 9.7 km/h 95 % 0 mm
04:33 19.7 °C 18.9 °C 1017.8 hPa SSE 6.4 km/h 9.7 km/h 95 % 0 mm
04:38 19.7 °C 18.9 °C 1017.8 hPa SE 1.6 km/h 11.3 km/h 95 % 0 mm
04:43 19.7 °C 18.9 °C 1017.8 hPa SSE 6.4 km/h 11.3 km/h 95 % 0 mm
04:48 19.7 °C 18.9 °C 1017.8 hPa SSE 6.4 km/h 11.3 km/h 95 % 0 mm
04:53 19.6 °C 18.8 °C 1018.2 hPa SSE 1.6 km/h 11.3 km/h 95 % 0 mm
04:58 19.6 °C 18.9 °C 1018.2 hPa SSW 3.2 km/h 11.3 km/h 96 % 0 mm
05:03 19.6 °C 18.9 °C 1018.2 hPa SSE 9.7 km/h 11.3 km/h 96 % 0 mm
05:08 19.7 °C 19 °C 1018.2 hPa South 4.8 km/h 16.1 km/h 96 % 0 mm
05:13 19.7 °C 19 °C 1018.2 hPa South 3.2 km/h 16.1 km/h 96 % 0 mm
05:18 19.6 °C 18.9 °C 1018.2 hPa SSW 4.8 km/h 16.1 km/h 96 % 0 mm
05:23 19.6 °C 18.9 °C 1018.2 hPa South 4.8 km/h 9.7 km/h 96 % 0 mm
05:28 19.7 °C 19 °C 1018.5 hPa SSW 1.6 km/h 9.7 km/h 96 % 0 mm
05:34 19.6 °C 18.9 °C 1018.5 hPa South 1.6 km/h 9.7 km/h 96 % 0 mm
05:39 19.6 °C 18.9 °C 1018.5 hPa SW 1.6 km/h 9.7 km/h 96 % 0 mm
05:44 19.5 °C 18.8 °C 1018.5 hPa Calm   6.4 km/h 96 % 0 mm
05:49 19.5 °C 18.8 °C 1018.8 hPa Calm   6.4 km/h 96 % 0 mm
05:54 19.6 °C 18.9 °C 1018.8 hPa Calm   4.8 km/h 96 % 0 mm
05:59 19.6 °C 18.9 °C 1018.8 hPa Calm   3.2 km/h 96 % 0 mm
06:04 19.6 °C 19.1 °C 1018.8 hPa Calm   3.2 km/h 97 % 0 mm
06:09 19.7 °C 19 °C 1018.8 hPa Calm   6.4 km/h 96 % 0 mm
06:14 19.6 °C 18.9 °C 1018.8 hPa Calm   6.4 km/h 96 % 0 mm
06:19 19.6 °C 18.9 °C 1019.2 hPa Calm   6.4 km/h 96 % 0 mm
06:24 19.6 °C 19.1 °C 1019.2 hPa Calm   3.2 km/h 97 % 0 mm
06:29 19.7 °C 19.2 °C 1019.2 hPa SSW 1.6 km/h 3.2 km/h 97 % 0 mm
06:34 19.6 °C 18.9 °C 1019.5 hPa SSW 1.6 km/h 4.8 km/h 96 % 0 mm
06:39 19.7 °C 19 °C 1019.5 hPa WSW 1.6 km/h 4.8 km/h 96 % 0 mm
06:44 19.6 °C 18.9 °C 1019.5 hPa South 1.6 km/h 6.4 km/h 96 % 0 mm
06:49 19.6 °C 18.9 °C 1019.5 hPa SSW 1.6 km/h 6.4 km/h 96 % 0 mm
06:54 19.6 °C 18.9 °C 1019.5 hPa SSW 1.6 km/h 6.4 km/h 96 % 0 mm
06:59 19.6 °C 18.9 °C 1019.9 hPa SSW 1.6 km/h 4.8 km/h 96 % 0 mm
07:04 19.6 °C 18.9 °C 1019.9 hPa SSW 1.6 km/h 3.2 km/h 96 % 0 mm
07:10 19.6 °C 18.9 °C 1019.9 hPa Calm   3.2 km/h 96 % 0 mm
07:15 19.6 °C 18.9 °C 1019.9 hPa Calm   3.2 km/h 96 % 0 mm
07:20 19.6 °C 18.9 °C 1019.9 hPa Calm   3.2 km/h 96 % 0 mm
07:25 19.5 °C 18.8 °C 1019.9 hPa Calm   3.2 km/h 96 % 0 mm
07:30 19.5 °C 18.8 °C 1020.2 hPa Calm   1.6 km/h 96 % 0 mm
07:35 19.5 °C 19 °C 1020.2 hPa SW 1.6 km/h 1.6 km/h 97 % 0 mm
07:40 19.5 °C 19 °C 1020.2 hPa Calm   1.6 km/h 97 % 0 mm
07:45 19.6 °C 19.1 °C 1020.2 hPa Calm   1.6 km/h 97 % 0 mm
07:50 19.6 °C 19.1 °C 1020.2 hPa SSE 3.2 km/h 3.2 km/h 97 % 0 mm
07:55 19.7 °C 19.2 °C 1020.2 hPa South 1.6 km/h 3.2 km/h 97 % 0 mm
08:00 19.7 °C 19.2 °C 1020.5 hPa South 3.2 km/h 3.2 km/h 97 % 0 mm
08:05 19.7 °C 19.2 °C 1020.5 hPa SSE 1.6 km/h 3.2 km/h 97 % 0 mm
08:10 19.8 °C 19.3 °C 1020.5 hPa Calm   4.8 km/h 97 % 0 mm
08:15 19.8 °C 19.3 °C 1020.5 hPa SSE 3.2 km/h 4.8 km/h 97 % 0 mm
08:20 19.9 °C 19.2 °C 1020.5 hPa SSW 3.2 km/h 4.8 km/h 96 % 0 mm
08:25 19.9 °C 19.2 °C 1020.5 hPa SE 3.2 km/h 6.4 km/h 96 % 0 mm
08:30 19.9 °C 19.2 °C 1020.9 hPa Calm   6.4 km/h 96 % 0 mm
08:35 20.2 °C 19.5 °C 1020.9 hPa Calm   6.4 km/h 96 % 0 mm
08:40 20.2 °C 19.5 °C 1020.9 hPa Calm   4.8 km/h 96 % 0 mm
08:45 20.2 °C 19.5 °C 1020.9 hPa SW 3.2 km/h 4.8 km/h 96 % 0 mm
08:50 20.2 °C 19.4 °C 1021.2 hPa SSW 4.8 km/h 6.4 km/h 95 % 0 mm
08:55 20.2 °C 19.4 °C 1021.2 hPa Calm   6.4 km/h 95 % 0 mm
09:00 20.2 °C 19.4 °C 1021.2 hPa SW 1.6 km/h 6.4 km/h 95 % 0 mm
09:05 20.2 °C 19.4 °C 1021.2 hPa Calm   4.8 km/h 95 % 0 mm
09:10 20.2 °C 19.4 °C 1021.6 hPa SW 1.6 km/h 4.8 km/h 95 % 0 mm
09:15 20.2 °C 19.4 °C 1021.6 hPa South 1.6 km/h 8 km/h 95 % 0 mm
09:20 20.2 °C 19.4 °C 1021.6 hPa Calm   8 km/h 95 % 0 mm
09:25 20 °C 19 °C 1021.6 hPa WNW 4.8 km/h 11.3 km/h 94 % 0 mm
09:30 19.7 °C 18.7 °C 1021.6 hPa West 6.4 km/h 11.3 km/h 94 % 0 mm
09:35 19.2 °C 18 °C 1021.6 hPa Calm   12.9 km/h 93 % 0 mm
09:40 18.9 °C 17.6 °C 1021.9 hPa WNW 1.6 km/h 12.9 km/h 92 % 0 mm
09:46 18.5 °C 17.2 °C 1021.9 hPa North 1.6 km/h 12.9 km/h 92 % 0 mm
09:51 18.3 °C 17 °C 1021.9 hPa NW 1.6 km/h 12.9 km/h 92 % 0 mm
09:56 18.2 °C 16.9 °C 1021.9 hPa NNW 4.8 km/h 12.9 km/h 92 % 0 mm
10:01 17.8 °C 16.1 °C 1022.2 hPa WNW 1.6 km/h 16.1 km/h 90 % 0 mm
10:06 17.6 °C 15.8 °C 1022.2 hPa NNW 1.6 km/h 16.1 km/h 89 % 0 mm
10:11 17.6 °C 15.6 °C 1022.2 hPa North 9.7 km/h 16.1 km/h 88 % 0 mm
10:16 17.4 °C 15.6 °C 1022.2 hPa NNW 9.7 km/h 12.9 km/h 89 % 0 mm
10:21 17.2 °C 15 °C 1022.2 hPa NNW 8 km/h 12.9 km/h 87 % 0 mm
10:26 17 °C 14.8 °C 1022.2 hPa NNW 6.4 km/h 12.9 km/h 87 % 0 mm
10:31 17 °C 14.6 °C 1022.6 hPa NNW 8 km/h 11.3 km/h 86 % 0 mm
10:36 16.9 °C 14.5 °C 1022.6 hPa NW 1.6 km/h 12.9 km/h 86 % 0 mm
10:41 17 °C 14.5 °C 1022.6 hPa NW 6.4 km/h 12.9 km/h 85 % 0 mm
10:46 17 °C 14.3 °C 1022.6 hPa NW 6.4 km/h 12.9 km/h 84 % 0 mm
10:51 17 °C 14.3 °C 1022.6 hPa Calm   11.3 km/h 84 % 0 mm
10:56 17.1 °C 14.2 °C 1022.6 hPa NW 8 km/h 11.3 km/h 83 % 0 mm
11:01 17.2 °C 14.1 °C 1022.6 hPa North 6.4 km/h 11.3 km/h 82 % 0 mm
11:06 17.4 °C 14.1 °C 1022.2 hPa NW 4.8 km/h 9.7 km/h 81 % 0 mm
11:11 17.8 °C 13.9 °C 1022.2 hPa NW 14.5 km/h 14.5 km/h 78 % 0 mm
11:16 17.8 °C 13.5 °C 1022.2 hPa NNW 8 km/h 14.5 km/h 76 % 0 mm
11:21 17.8 °C 13.5 °C 1022.2 hPa WNW 6.4 km/h 14.5 km/h 76 % 0 mm
11:26 18.2 °C 13.7 °C 1022.2 hPa NNW 6.4 km/h 14.5 km/h 75 % 0 mm
11:31 18.6 °C 13.7 °C 1022.2 hPa NW 6.4 km/h 12.9 km/h 73 % 0 mm
11:36 19.1 °C 14.1 °C 1022.2 hPa NNW 6.4 km/h 12.9 km/h 73 % 0 mm
11:41 19.2 °C 13.8 °C 1021.9 hPa NNE 1.6 km/h 12.9 km/h 71 % 0 mm
11:46 19.1 °C 14.1 °C 1021.9 hPa NW 8 km/h 16.1 km/h 73 % 0 mm
11:51 19.4 °C 14.2 °C 1021.9 hPa NNW 12.9 km/h 16.1 km/h 72 % 0 mm
11:56 19.5 °C 13.9 °C 1022.2 hPa NNW 6.4 km/h 16.1 km/h 70 % 0 mm
12:01 19.6 °C 13.8 °C 1021.9 hPa West 6.4 km/h 14.5 km/h 69 % 0 mm
12:07 19.6 °C 13.5 °C 1021.9 hPa NNW 3.2 km/h 14.5 km/h 68 % 0 mm
12:12 19.3 °C 13.2 °C 1021.9 hPa NW 4.8 km/h 14.5 km/h 68 % 0 mm
12:17 19.5 °C 13.2 °C 1021.9 hPa NNW 4.8 km/h 14.5 km/h 67 % 0 mm
12:22 19.6 °C 13.1 °C 1021.9 hPa NNW 3.2 km/h 12.9 km/h 66 % 0 mm
12:27 19.5 °C 12.7 °C 1021.9 hPa NW 9.7 km/h 12.9 km/h 65 % 0 mm
12:32 19.3 °C 12.3 °C 1021.9 hPa NW 4.8 km/h 16.1 km/h 64 % 0 mm
12:37 19.4 °C 12.7 °C 1021.9 hPa WNW 3.2 km/h 16.1 km/h 65 % 0 mm
12:42 19.5 °C 12.5 °C 1021.9 hPa WSW 3.2 km/h 16.1 km/h 64 % 0 mm
12:47 19.3 °C 12.3 °C 1021.9 hPa East 1.6 km/h 14.5 km/h 64 % 0 mm
12:52 19.3 °C 12.3 °C 1021.6 hPa WNW 1.6 km/h 14.5 km/h 64 % 0 mm
12:57 19.4 °C 12.2 °C 1021.6 hPa WNW 4.8 km/h 14.5 km/h 63 % 0 mm
13:02 19.2 °C 12 °C 1021.6 hPa NW 8 km/h 16.1 km/h 63 % 0 mm
13:07 18.9 °C 11.7 °C 1021.6 hPa North 8 km/h 16.1 km/h 63 % 0 mm
13:12 19 °C 11.6 °C 1021.6 hPa WNW 11.3 km/h 16.1 km/h 62 % 0 mm
13:17 18.8 °C 11.4 °C 1021.6 hPa NW 9.7 km/h 17.7 km/h 62 % 0 mm
13:22 19 °C 11.3 °C 1021.2 hPa NW 9.7 km/h 17.7 km/h 61 % 0 mm
13:27 18.8 °C 11.4 °C 1021.2 hPa NW 9.7 km/h 19.3 km/h 62 % 0 mm
13:32 18.9 °C 11.5 °C 1021.2 hPa NW 9.7 km/h 19.3 km/h 62 % 0 mm
13:37 18.7 °C 11 °C 1021.2 hPa WNW 8 km/h 19.3 km/h 61 % 0 mm
13:42 18.7 °C 11.3 °C 1021.2 hPa NNW 9.7 km/h 19.3 km/h 62 % 0 mm
13:47 18.6 °C 11.2 °C 1020.9 hPa WNW 11.3 km/h 19.3 km/h 62 % 0 mm
13:52 18.7 °C 11.5 °C 1021.2 hPa NW 6.4 km/h 19.3 km/h 63 % 0 mm
13:57 18.8 °C 11.4 °C 1020.9 hPa NNW 4.8 km/h 19.3 km/h 62 % 0 mm
14:02 19.1 °C 11.6 °C 1020.9 hPa NNW 9.7 km/h 19.3 km/h 62 % 0 mm
14:07 18.9 °C 11.2 °C 1021.2 hPa NNW 8 km/h 12.9 km/h 61 % 0 mm
14:12 18.7 °C 11.5 °C 1020.9 hPa Calm   14.5 km/h 63 % 0 mm
14:17 18.4 °C 11.2 °C 1020.9 hPa NW 8 km/h 17.7 km/h 63 % 0 mm
14:22 18.4 °C 11.2 °C 1020.9 hPa West 4.8 km/h 17.7 km/h 63 % 0 mm
14:27 18.3 °C 11.1 °C 1020.9 hPa NW 8 km/h 17.7 km/h 63 % 0 mm
14:32 18.2 °C 11 °C 1020.9 hPa NNW 12.9 km/h 16.1 km/h 63 % 0 mm
14:37 18.2 °C 10.8 °C 1021.2 hPa NNW 14.5 km/h 16.1 km/h 62 % 0 mm
14:42 18.1 °C 10.5 °C 1021.2 hPa NNW 11.3 km/h 16.1 km/h 61 % 0 mm
14:47 17.9 °C 10.5 °C 1021.2 hPa NNW 11.3 km/h 16.1 km/h 62 % 0 mm
14:52 17.8 °C 10.2 °C 1020.9 hPa NW 8 km/h 17.7 km/h 61 % 0 mm
14:57 17.9 °C 10.3 °C 1021.2 hPa NNW 8 km/h 17.7 km/h 61 % 0 mm
15:02 17.9 °C 10.3 °C 1021.2 hPa NW 4.8 km/h 17.7 km/h 61 % 0 mm
15:07 18 °C 10.1 °C 1021.2 hPa NNW 4.8 km/h 14.5 km/h 60 % 0 mm
15:12 17.9 °C 9.8 °C 1021.2 hPa NW 4.8 km/h 14.5 km/h 59 % 0 mm
15:17 17.8 °C 9.9 °C 1021.2 hPa NW 11.3 km/h 14.5 km/h 60 % 0 mm
15:22 17.8 °C 9.9 °C 1021.2 hPa West 3.2 km/h 14.5 km/h 60 % 0 mm
15:27 18 °C 9.9 °C 1021.2 hPa North 14.5 km/h 17.7 km/h 59 % 0 mm
15:32 17.9 °C 10 °C 1020.9 hPa NNW 4.8 km/h 17.7 km/h 60 % 0 mm
15:37 17.8 °C 9.7 °C 1020.9 hPa NW 8 km/h 17.7 km/h 59 % 0 mm
15:42 17.7 °C 9.6 °C 1021.2 hPa NNW 4.8 km/h 16.1 km/h 59 % 0 mm
15:47 17.7 °C 9.6 °C 1020.9 hPa WNW 8 km/h 16.1 km/h 59 % 0 mm
15:52 17.8 °C 9.7 °C 1021.2 hPa NNW 4.8 km/h 16.1 km/h 59 % 0 mm
15:57 17.8 °C 9.7 °C 1021.2 hPa NW 11.3 km/h 16.1 km/h 59 % 0 mm
16:02 17.9 °C 9.8 °C 1021.2 hPa NNW 3.2 km/h 14.5 km/h 59 % 0 mm
16:07 17.9 °C 9.8 °C 1021.2 hPa NW 4.8 km/h 14.5 km/h 59 % 0 mm
16:12 18.1 °C 10 °C 1021.2 hPa NW 11.3 km/h 14.5 km/h 59 % 0 mm
16:17 18.1 °C 10 °C 1021.2 hPa NW 9.7 km/h 12.9 km/h 59 % 0 mm
16:22 18.2 °C 10.1 °C 1021.2 hPa NW 6.4 km/h 14.5 km/h 59 % 0 mm
16:27 18.3 °C 10.1 °C 1021.2 hPa NW 6.4 km/h 14.5 km/h 59 % 0 mm
16:32 18.3 °C 10.1 °C 1021.2 hPa NW 4.8 km/h 14.5 km/h 59 % 0 mm
16:37 18.3 °C 10.1 °C 1021.2 hPa NNW 6.4 km/h 11.3 km/h 59 % 0 mm
16:42 18.4 °C 10.2 °C 1021.2 hPa NW 4.8 km/h 12.9 km/h 59 % 0 mm
16:47 18.4 °C 10.2 °C 1021.2 hPa NNW 6.4 km/h 14.5 km/h 59 % 0 mm
16:52 18.6 °C 10.4 °C 1021.2 hPa WNW 3.2 km/h 14.5 km/h 59 % 0 mm
16:57 18.4 °C 10 °C 1021.6 hPa NW 4.8 km/h 14.5 km/h 58 % 0 mm
17:02 18.3 °C 10.1 °C 1021.6 hPa North 6.4 km/h 14.5 km/h 59 % 0 mm
17:07 18.3 °C 10.1 °C 1021.6 hPa NW 9.7 km/h 14.5 km/h 59 % 0 mm
17:12 18.2 °C 10.1 °C 1021.6 hPa North 4.8 km/h 16.1 km/h 59 % 0 mm
17:17 18.1 °C 10.2 °C 1021.6 hPa North 3.2 km/h 16.1 km/h 60 % 0 mm
17:22 18.1 °C 10.2 °C 1021.6 hPa NNW 3.2 km/h 16.1 km/h 60 % 0 mm
17:28 18 °C 9.9 °C 1021.6 hPa NW 3.2 km/h 11.3 km/h 59 % 0 mm
17:33 17.8 °C 9.7 °C 1021.6 hPa NW 3.2 km/h 9.7 km/h 59 % 0 mm
17:38 17.7 °C 9.8 °C 1021.6 hPa NW 4.8 km/h 11.3 km/h 60 % 0 mm
17:43 17.7 °C 9.8 °C 1021.9 hPa NW 3.2 km/h 11.3 km/h 60 % 0 mm
17:48 17.6 °C 9.7 °C 1021.9 hPa NNW 4.8 km/h 11.3 km/h 60 % 0 mm
17:53 17.4 °C 9.6 °C 1021.9 hPa NNW 8 km/h 9.7 km/h 60 % 0 mm
17:58 17.3 °C 9.5 °C 1021.9 hPa WNW 6.4 km/h 12.9 km/h 60 % 0 mm
18:03 17.2 °C 9.4 °C 1021.9 hPa NW 6.4 km/h 12.9 km/h 60 % 0 mm
18:08 17.1 °C 9 °C 1022.2 hPa WNW 3.2 km/h 12.9 km/h 59 % 0 mm
18:13 17 °C 8.9 °C 1022.2 hPa NNW 8 km/h 17.7 km/h 59 % 0 mm
18:18 16.9 °C 8.8 °C 1022.2 hPa NW 4.8 km/h 17.7 km/h 59 % 0 mm
18:23 16.9 °C 8.8 °C 1022.2 hPa NNW 4.8 km/h 17.7 km/h 59 % 0 mm
18:28 16.9 °C 8.8 °C 1022.2 hPa NW 12.9 km/h 12.9 km/h 59 % 0 mm
18:33 16.8 °C 9 °C 1022.2 hPa NNW 8 km/h 12.9 km/h 60 % 0 mm
18:38 16.8 °C 9 °C 1022.2 hPa NW 3.2 km/h 12.9 km/h 60 % 0 mm
18:43 16.8 °C 9 °C 1022.2 hPa NNW 8 km/h 12.9 km/h 60 % 0 mm
18:48 16.8 °C 9 °C 1022.2 hPa NNE 9.7 km/h 11.3 km/h 60 % 0 mm
18:53 16.7 °C 8.9 °C 1022.6 hPa NW 4.8 km/h 9.7 km/h 60 % 0 mm
18:58 16.7 °C 8.9 °C 1022.6 hPa NW 1.6 km/h 9.7 km/h 60 % 0 mm
19:03 16.7 °C 9.1 °C 1022.6 hPa NW 3.2 km/h 9.7 km/h 61 % 0 mm
19:08 16.6 °C 9 °C 1022.6 hPa NW 1.6 km/h 9.7 km/h 61 % 0 mm
19:13 16.6 °C 9 °C 1022.6 hPa NW 1.6 km/h 9.7 km/h 61 % 0 mm
19:18 16.6 °C 9 °C 1022.6 hPa NW 1.6 km/h 8 km/h 61 % 0 mm
19:23 16.4 °C 9.1 °C 1022.6 hPa NNE 3.2 km/h 8 km/h 62 % 0 mm
19:28 16.4 °C 9.1 °C 1022.6 hPa NW 1.6 km/h 8 km/h 62 % 0 mm
19:33 16.3 °C 9 °C 1022.6 hPa NW 3.2 km/h 8 km/h 62 % 0 mm
19:38 16.2 °C 9.1 °C 1022.9 hPa Calm   6.4 km/h 63 % 0 mm
19:43 16.2 °C 9.1 °C 1022.9 hPa Calm   6.4 km/h 63 % 0 mm
19:48 16.1 °C 9.1 °C 1022.9 hPa NNW 3.2 km/h 6.4 km/h 63 % 0 mm
19:53 16.1 °C 9.3 °C 1022.9 hPa NNW 3.2 km/h 4.8 km/h 64 % 0 mm
19:58 15.9 °C 9.1 °C 1022.9 hPa NNW 3.2 km/h 6.4 km/h 64 % 0 mm
20:03 15.9 °C 9.1 °C 1022.9 hPa NW 4.8 km/h 14.5 km/h 64 % 0 mm
20:04 15.9 °C 9.1 °C 1022.9 hPa NW 3.2 km/h 14.5 km/h 64 % 0 mm
20:09 15.8 °C 9 °C 1022.9 hPa NNE 6.4 km/h 14.5 km/h 64 % 0 mm
20:14 15.7 °C 8.9 °C 1023.2 hPa North 4.8 km/h 14.5 km/h 64 % 0 mm
20:19 15.6 °C 8.8 °C 1023.2 hPa NW 4.8 km/h 14.5 km/h 64 % 0 mm
20:24 15.5 °C 8.7 °C 1022.9 hPa NW 4.8 km/h 12.9 km/h 64 % 0 mm
20:29 15.4 °C 8.6 °C 1022.9 hPa NW 6.4 km/h 14.5 km/h 64 % 0 mm
20:34 15.3 °C 8.5 °C 1022.9 hPa NNW 4.8 km/h 14.5 km/h 64 % 0 mm
20:39 15.2 °C 8.4 °C 1023.2 hPa WSW 1.6 km/h 14.5 km/h 64 % 0 mm
20:44 15.1 °C 8.6 °C 1023.2 hPa NW 4.8 km/h 14.5 km/h 65 % 0 mm
20:49 14.9 °C 8.4 °C 1023.2 hPa NW 4.8 km/h 16.1 km/h 65 % 0 mm
20:54 14.8 °C 8.5 °C 1023.2 hPa NW 6.4 km/h 16.1 km/h 66 % 0 mm
20:59 14.7 °C 8.6 °C 1023.2 hPa NNW 4.8 km/h 16.1 km/h 67 % 0 mm
21:04 14.7 °C 8.9 °C 1023.2 hPa WNW 12.9 km/h 12.9 km/h 68 % 0 mm
21:09 14.6 °C 8.8 °C 1023.6 hPa NNE 3.2 km/h 12.9 km/h 68 % 0 mm
21:14 14.5 °C 8.7 °C 1023.6 hPa NW 6.4 km/h 14.5 km/h 68 % 0 mm
21:24 14.2 °C 8.8 °C 1023.6 hPa North 3.2 km/h 14.5 km/h 70 % 0 mm
21:29 14.1 °C 8.9 °C 1023.6 hPa NW 3.2 km/h 9.7 km/h 71 % 0 mm
21:34 13.9 °C 8.9 °C 1023.6 hPa NW 3.2 km/h 9.7 km/h 72 % 0 mm
21:39 13.8 °C 9.2 °C 1023.6 hPa NNW 4.8 km/h 9.7 km/h 74 % 0 mm
21:44 13.7 °C 9.3 °C 1023.6 hPa NW 6.4 km/h 14.5 km/h 75 % 0 mm
21:50 13.6 °C 9.4 °C 1023.6 hPa NNW 1.6 km/h 14.5 km/h 76 % 0 mm
21:55 13.4 °C 9.4 °C 1023.6 hPa NNW 6.4 km/h 14.5 km/h 77 % 0 mm
22:00 13.4 °C 9.6 °C 1023.6 hPa WNW 1.6 km/h 17.7 km/h 78 % 0 mm
22:05 13.3 °C 9.5 °C 1023.6 hPa NE 1.6 km/h 17.7 km/h 78 % 0 mm
22:10 13.2 °C 9.6 °C 1023.9 hPa North 6.4 km/h 17.7 km/h 79 % 0 mm
22:15 13.1 °C 9.5 °C 1023.9 hPa NNW 6.4 km/h 11.3 km/h 79 % 0 mm
22:20 13 °C 9.6 °C 1023.6 hPa NNE 1.6 km/h 9.7 km/h 80 % 0 mm
22:25 12.9 °C 9.7 °C 1023.6 hPa North 1.6 km/h 11.3 km/h 81 % 0 mm
22:30 12.8 °C 9.6 °C 1023.6 hPa NNW 3.2 km/h 12.9 km/h 81 % 0 mm
22:35 12.8 °C 9.8 °C 1023.6 hPa NW 1.6 km/h 14.5 km/h 82 % 0 mm
22:40 12.7 °C 9.7 °C 1023.6 hPa NW 1.6 km/h 14.5 km/h 82 % 0 mm
22:45 12.6 °C 9.6 °C 1023.6 hPa Calm   14.5 km/h 82 % 0 mm
22:50 12.4 °C 9.4 °C 1023.6 hPa NNW 8 km/h 9.7 km/h 82 % 0 mm
22:55 12.4 °C 9.6 °C 1023.6 hPa NNW 1.6 km/h 11.3 km/h 83 % 0 mm
23:00 12.3 °C 9.5 °C 1023.6 hPa Calm   11.3 km/h 83 % 0 mm
23:05 12.2 °C 9.6 °C 1023.6 hPa Calm   11.3 km/h 84 % 0 mm
23:10 12.1 °C 9.5 °C 1023.6 hPa North 3.2 km/h 8 km/h 84 % 0 mm
23:15 12.1 °C 9.7 °C 1023.6 hPa North 4.8 km/h 8 km/h 85 % 0 mm
23:20 12.1 °C 9.7 °C 1023.6 hPa NW 1.6 km/h 6.4 km/h 85 % 0 mm
23:25 12 °C 9.6 °C 1023.6 hPa Calm   6.4 km/h 85 % 0 mm
23:30 12 °C 9.7 °C 1023.6 hPa North 1.6 km/h 6.4 km/h 86 % 0 mm
23:35 12 °C 9.7 °C 1023.2 hPa Calm   4.8 km/h 86 % 0 mm
23:40 12 °C 9.7 °C 1023.2 hPa Calm   4.8 km/h 86 % 0 mm
23:45 12.1 °C 9.8 °C 1023.2 hPa Calm   4.8 km/h 86 % 0 mm
23:50 12.1 °C 10 °C 1023.2 hPa Calm   4.8 km/h 87 % 0 mm
23:56 12.1 °C 10 °C 1023.2 hPa Calm   6.4 km/h 87 % 0 mm
Spring, Texas: Villages of Bridgestone
Compliments of Weather Underground - 2.75 mb

Script developed by  Jim McMurry - jmcmurry@mwt.net Adapted for the template by  Wim van der Kuil - Leuven-Template.eu

You find our weather info also at:

UK Metoffice

WeatherCloud

Weather Underground

Mid-South Weather Network

AWEKAS

Citizen Weather Observer Program (CWOP)

HAMweather, WeatherForYou, PWS Weather

Equipment we use:

Weather-station
Davis Vantage Vue

Weather-program
Meteohub

Weather-server
Debian 7.9 x86 (Guest)

Provider
DreamHost

Davis Vantage Vue

Meteohub

Debian 7.9 x86 (Guest)

DreamHost